Location: Góry Miechowskie
(50.3599°N, 20.1803°E)
Time: 14:38:23
(UTC+00:00)

deb Explorer IX - Pass Details

Date: 17 September 2024
Orbit: 504 x 830 km, 38.7° (Epoch: 04 October)

Event Time Altitude Azimuth Distance (km) Brightness Sun altitude
Rises 19:37:07 0° 247° (WSW) 3,417 ? -25.7°
Reaches altitude 10° 19:40:03 10° 236° (SW) 2,485 ? -26.0°
Enters shadow 19:42:55 22° 211° (SSW) 1,784 ? -26.4°
